Other Public Products
Issued by NWS Grand Forks, ND

Home | Current Version | Previous Version | Text Only | Print | Product List | Glossary Off
Versions: 1 2 3 4 5 6 7 8 9 10 11 12 13 14 15 16 17 18 19 20 21 22 23 24 25 26 27 28 29 30 31 32 33 34 35 36 37 38 39 40 41 42 43 44 45 46 47 48 49 50

000
FPUS83 KFGF 010410
OPUFGF
PRAIRIE TO PINES WEATHER ROUNDUP
NATIONAL WEATHER SERVICE EASTERN NORTH DAKOTA/GRAND FORKS ND
1100 PM CDT TUE JUN 30 2015

 **SATELLITE DATA USED TO AUGMENT SKY COVER AT AUTOMATED STATIONS**
 *****  WEATHER ACROSS EASTERN NORTH DAKOTA  *****

CITY           SKY/WX    TMP DP  RH WIND       PRES   REMARKS
GRAND FORKS    CLOUDY    64  60  87 CALM      29.91S
GRAND FORKS AF CLOUDY    63  61  94 W1        29.92S
GRAND CITY NWS   N/A     64 N/A N/A MISG        N/A
BUXTON         NOT AVBL
DEVILS LAKE    CLOUDY    64  57  77 SE6       29.92S
FARGO          CLOUDY    66  61  84 E3        29.90F
WAHPETON ARPT  CLOUDY    64  61  88 CALM      29.93R
$$

 *****  WEATHER ACROSS CENTRAL AND WESTERN NORTH DAKOTA  *****

CITY           SKY/WX    TMP DP  RH WIND       PRES   REMARKS
JAMESTOWN      CLOUDY    66  61  84 CALM      29.93R
BISMARCK       HVY RAIN  66  64  93 NE18G24   29.93R FOG
MINOT          CLOUDY    66  64  93 NE3       29.89S FOG
MINOT AFB      NOT AVBL
GARRISON         N/A     63  61  93 S7        29.90F
WILLISTON      CLOUDY    67  61  81 CALM      29.90S
DICKINSON      PTCLDY    64  62  93 NE13      29.91R FOG
HETTINGER      MOCLDY    67  64  90 E3        29.88R
$$

 *****  OTHER OBSERVATIONS NORTHEAST NORTH DAKOTA  *****

CITY           SKY/WX    TMP DP  RH WIND       PRES   REMARKS
WALHALLA       FAIR      64  64 100 MISG      29.92S
LANGDON        FAIR      61  61 100 SE6       29.95S
CAVALIER       FAIR      64  63  94 CALM      29.92S
GRAFTON        FAIR      64  61  88 CALM      29.92F
CANDO          FAIR      63  59  88 E6        29.93F
FORT TOTTEN      N/A     65  59  81 SE6       29.95S
ROLLA          MOCLDY    63  63 100 S6        29.95S
RUGBY          NOT AVBL
 ***** THE ABOVE OBSERVATIONS ARE NON NWS ARE NOT QUALITY
        CONTROLLED AND MAY MIS-REPORT RAIN FOR SNOW...
$$

 *****  OTHER OBSERVATIONS SOUTHEAST NORTH DAKOTA *****

CITY           SKY/WX    TMP DP  RH WIND       PRES   REMARKS
COOPERSTOWN    NOT AVBL
VALLEY CITY    CLOUDY    64  64 100 NE5       29.93R
OAKES            N/A     64  63  94 E9        29.90R
GWINNER        NOT AVBL
SHEYENNE NWR     N/A     64  61  91 E5        29.95S
BUFFALO        NOT AVBL
WYNDMERE       NOT AVBL
 ***** THE ABOVE OBSERVATIONS ARE NON NWS ARE NOT QUALITY
       CONTROLLED AND MAY MIS-REPORT RAIN FOR SNOW...
$$

  *****  WEATHER ACROSS NORTHERN MINNESOTA  *****

CITY           SKY/WX    TMP DP  RH WIND       PRES   REMARKS
FLAG ISLAND    MOCLDY    70  52  52 S7        29.94R
WARROAD        MOCLDY    63  55  77 CALM      29.96R
ROSEAU         MOCLDY    63  57  82 CALM      29.95S HAZE
HALLOCK        MOCLDY    63  61  94 CALM      29.92S
THF RVR FALLS  CLOUDY    64  54  68 CALM      29.94S
HALSTAD        NOT AVBL
FOSSTON        CLOUDY    57  50  77 CALM      29.95S
BAUDETTE       MOCLDY    60  55  83 E3        29.95S
WASKISH        PTCLDY    61  55  82 E5        29.96S
CROOKSTON      CLOUDY    66  55  68 E3        29.93F
$$
  *****  WEATHER ACROSS CENTRAL AND WEST MINNESOTA  *****

CITY           SKY/WX    TMP DP  RH WIND       PRES   REMARKS
BEMIDJI        MOCLDY    60  55  82 CALM      29.96R
PARK RAPIDS    CLOUDY    68  56  65 E5        29.95R
WADENA           N/A     66  55  68 CALM      29.94S
DETROIT LAKES  CLOUDY    68  59  73 NE3       29.95S
MOORHEAD       CLOUDY    68  63  83 CALM      29.92S
FERGUS FALLS   CLOUDY    66  61  82 NE3       29.92F
ELBOW LAKE     FAIR      67  62  85 CALM      29.93S
MORRIS MN      MOCLDY    66  63  88 E5        29.91S
STAPLES        CLOUDY    64  55  72 CALM      29.95R
WHEATON        MOCLDY    63  61  94 CALM      29.94R
$$
  *****  WEATHER ELSEWHERE ACROSS MINNESOTA  *****

CITY           SKY/WX    TMP DP  RH WIND       PRES   REMARKS
DULUTH         CLEAR     51  46  83 E5        29.99R
INTRNTL FALLS  MOCLDY    52  50  93 CALM      29.96S
ELY            PTCLDY    54  48  82 CALM      29.98S
CLOQUET        PTCLDY    52  46  82 CALM      29.99S
BRAINERD       CLOUDY    64  58  80 SE7       29.96R
HIBBING        MOCLDY    54  51  90 CALM      29.98R
ALEXANDRIA     CLOUDY    68  57  68 SE5       29.95R
SAINT CLOUD    MOCLDY    64  58  80 E3        29.95R
MINNEAPOLIS    MOCLDY    67  55  65 E8        29.96R
$$

  *****  WEATHER ACROSS SOUTH DAKOTA  *****

CITY           SKY/WX    TMP DP  RH WIND       PRES   REMARKS
SIOUX FALLS    MOCLDY    67  64  90 E5        29.89F
BROOKINGS      MOCLDY    66  61  82 E9        29.93R
WATERTOWN      PTCLDY    66  61  84 SE5       29.92R
HURON          FOG       68  68 100 CALM      29.88R VSB 1/4
SISSETON         N/A     62  59  90 CALM      29.91R
ABERDEEN       CLOUDY    69  65  86 SE5       29.90R
MITCHELL       MOCLDY    67  67 100 CALM      29.88R FOG
PIERRE         MOCLDY    66  64  93 E5        29.87R
MOBRIDGE       CLOUDY    68  65  90 E9        29.85F
RAPID CITY     CLEAR     70  67  90 CALM      29.92R
$$

  *****  SOME WEATHER IN NEARBY STATES *****

CITY           SKY/WX    TMP DP  RH WIND       PRES   REMARKS
GLASGOW MT     NOT AVBL
GREAT FALLS MT CLEAR     76  51  41 NE14      30.01R
CHEYENNE WY    LGT RAIN  61  57  87 S9        30.21F
SCOTTSBLUFF NE CLOUDY    81  56  42 CALM      29.98R
OMAHA NE       CLOUDY    71  68  90 N8        29.93R
DES MOINES IA  CLOUDY    75  64  68 VRB3      29.89F
DAVENPORT IA   MOCLDY    67  62  84 N3        29.91R
CHICAGO IL     MOCLDY    59  53  80 NE7       29.92R
EAU CLAIRE WI  CLEAR     57  48  72 NE6       29.96S
LA CROSSE WI   CLEAR     63  55  75 N6        29.94R
$$

  *****  SOME NATIONAL WEATHER *****

CITY           SKY/WX    TMP DP  RH WIND       PRES   REMARKS
LA GUARDIA NY  CLOUDY    74  68  81 S17G25    29.84F
RALEIGH NC     MOCLDY    70  66  87 SW9       29.94R
ATLANTA GA     MOCLDY    74  65  73 W5        30.03R
NEW ORLEANS LA CLOUDY    75  67  76 W9        30.13R
OKLAHOMA CITY  MOCLDY    81  71  71 S12       29.96R
ALBUQUERQUE NM PTCLDY    84  42  22 E15       30.10R
SALT LAKE CITY CLOUDY    88  57  34 NW23G36   30.02R
LOS ANGELES CA PTCLDY    71  64  78 W13       29.83R
BOISE ID       PTCLDY    89  44  20 NW6       29.90R
SEATTLE WA     PTCLDY    80  52  37 N9        30.03S
$$

*** WEATHER ACROSS MANITOBA...SASKATCHEWAN AND ONTARIO ***
                ***ONTARIO***

CITY           SKY/WX    TMP DP  RH WIND       PRES   REMARKS
GERALDTON      PTCLDY    46  43  87 CALM      29.99S
THUNDER BAY    PTCLDY    48  46  93 N3          N/A
SIOUX LOOKOUT  NOT AVBL
TORONTO        CLOUDY    63  61  94 CALM      29.76F FOG
BIG TROUT LK   CLEAR     46  43  87 SE2       29.94S
PICKLE LAKE    NOT AVBL
DRYDEN         CLEAR     61  50  67 SE7       29.97S
KENORA         NOT AVBL
$$
                *** MANITOBA***

CITY           SKY/WX    TMP DP  RH WIND       PRES   REMARKS
BRANDON        NOT AVBL
DAUPHIN        CLEAR     61  57  88 W3        29.92R
ISLAND LAKE    CLOUDY    61  55  82 CALM      29.91S
PILOT MOUND      N/A    N/A N/A N/A E5          N/A
THE PAS        CLOUDY    70  61  73 SW6       29.85S
THOMPSON       MOCLDY    59  57  94 CALM      29.86S
WINNIPEG       MOCLDY    64  57  77 E5        29.93S
LYNN LAKE        N/A    N/A N/A N/A MISG        N/A
CHURCHILL      MOCLDY    55  45  67 S7        29.90R
GILLAM         TSTM      57  55  94 N10       29.89R
$$
                ***SASKATCHEWAN***

CITY           SKY/WX    TMP DP  RH WIND       PRES   REMARKS
ESTEVAN        CLOUDY    63  61  94 SE3       29.92R SMOKE
KINDERSLEY     PTCLDY    63  59  88 S3        29.99R SMOKE
LLOYDMINSTER   CLOUDY    61  57  88 NE6       29.97S SMOKE
PRINCE ALBERT    N/A     64  63  94 SW3       29.90R SMOKE
REGINA         MOCLDY    61  59  94 N2        29.96R SMOKE



USA.gov is the U.S. government's official web portal to all federal, state and local government web resources and services.